Location: Mentone
(34.5413°N, 85.5351°W)
Time: 15:46:59
(UTC-05:00)

Uosat F - Visible Passes

Search period start: 22 October 2017 00:00
Search period end: 01 November 2017 00:00
Orbit: 751 x 760 km, 98.8° (Epoch: 21 October)

Date Brightness Start Highest point End Pass type
(mag) Time Alt. Az. Time Alt. Az. Time Alt. Az.
22 Oct 11.0 19:03:28 10° SSE 19:08:29 81° ENE 19:13:32 10° N visible
23 Oct 11.8 18:24:46 10° SE 18:29:11 32° ENE 18:33:36 10° N visible
23 Oct 13.3 20:03:50 10° SSW 20:07:53 24° W 20:11:58 10° NW visible
24 Oct 11.5 19:23:16 10° S 19:28:15 64° WSW 19:33:16 10° NNW visible
25 Oct 11.2 18:44:00 10° SSE 18:48:50 50° ENE 18:53:42 10° N visible
25 Oct 13.9 20:24:55 10° SW 20:27:49 15° W 20:30:43 10° WNW visible
26 Oct 12.4 19:43:23 10° SSW 19:48:05 39° W 19:52:48 10° NNW visible
27 Oct 11.0 19:03:31 10° SSE 19:08:33 80° ENE 19:13:36 10° N visible
28 Oct 11.8 18:24:50 10° SE 18:29:14 31° ENE 18:33:39 10° N visible
28 Oct 13.2 20:03:51 10° SSW 20:07:56 25° W 20:12:04 10° NW visible
29 Oct 11.5 19:23:19 10° S 19:28:18 65° WSW 19:33:20 10° NNW visible
30 Oct 11.2 18:44:03 10° SE 18:48:53 49° ENE 18:53:45 10° N visible
30 Oct 13.9 20:24:54 10° SW 20:27:51 16° W 20:30:50 10° WNW visible
31 Oct 12.4 19:43:25 10° SSW 19:48:08 40° W 19:52:52 10° NNW visible
